Regional Weather Roundup
Issued by NWS Grand Forks, ND

Home | Current Version | Previous Version | Text Only | Print | Product List | Glossary Off
Versions: 1 2 3 4 5 6 7 8 9 10 11 12 13 14 15 16 17 18 19 20 21 22 23 24 25 26 27 28 29 30 31 32 33 34 35 36 37 38 39 40 41 42 43 44 45 46 47 48 49 50

000
ASUS43 KFGF 050210
RWRFGF
PRAIRIE TO PINES  WEATHER ROUNDUP
NATIONAL WEATHER SERVICE EASTERN NORTH DAKOTA/GRAND FORKS ND
800 PM CST SUN DEC 04 2016

 **SATELLITE DATA USED TO AUGMENT SKY COVER AT AUTOMATED STATIONS**
 *****  WEATHER ACROSS EASTERN NORTH DAKOTA  *****

CITY           SKY/WX    TMP DP  RH WIND       PRES   REMARKS
GRAND FORKS    CLOUDY    30  25  81 W10       29.66R WCI  21
GRAND FRKS AFB CLOUDY    28  25  86 W7        29.66R WCI  21
GRAND FRKS NWS   N/A     28 N/A N/A W16         N/A  WCI  17
DEVILS LAKE    LGT SNOW  24  23  96 W8        29.65S FOG     WCI  15
FARGO          MOCLDY    28  25  88 SW3       29.68F
WAHPETON ARPT  MOCLDY    32  30  93 W8        29.72R WCI  25
$$

 ***** WEATHER ACROSS CENTRAL AND WESTERN NORTH DAKOTA  *****

CITY           SKY/WX    TMP DP  RH WIND       PRES   REMARKS
BISMARCK       CLEAR     17  14  88 E5        29.65F WCI  10
MINOT          CLOUDY    15  13  91 SE5       29.60F WCI   8
JAMESTOWN      CLEAR     24  21  88 SW5       29.66F WCI  18
MINOT AFB      CLOUDY     9   6  88 SE6       29.60F WCI   0
GARRISON         N/A     16  13  88 CALM      29.60F
WILLISTON      CLOUDY    24  19  81 CALM      29.55F
DICKINSON      CLOUDY    23  17  78 S9        29.55F WCI  13
HETTINGER      CLOUDY    30  21  69 S5        29.60F
$$

 *****  OTHER AIRPORT OBSERVATIONS IN OUR AREA  *****

CITY           SKY/WX    TMP DP  RH WIND       PRES   REMARKS
WALHALLA         N/A     27  27 100 NW7       29.63R WCI  19
GRAFTON AIRPOR CLOUDY    30  28  93 W12       29.66R WCI  21
VALLEY CITY AR FAIR      21  21 100 SW7       29.69S WCI  13
CANDO          CLOUDY    23  23 100 W7        29.67S FOG     WCI  15
CAVALIER APRT    N/A     28  27  93 W9        29.63R WCI  20
GWINNER          N/A     32  30  93 SW12      29.71S WCI  23
SHEYENNE NWR     N/A     27  24  90 W5        29.95S WCI  22
ROLLA          CLOUDY    19  19 100 CALM      29.63S FOG
 ***** THE ABOVE OBSERVATIONS ARE NON NWS ARE NOT QUALITY
       CONTROLLED AND MAY MIS-REPORT RAIN FOR SNOW...
$$

  *****  WEATHER ACROSS NORTHERN MINNESOTA  *****

CITY           SKY/WX    TMP DP  RH WIND       PRES   REMARKS
FLAG ISLAND    CLOUDY    30  30 100 SW9       29.57S FOG     WCI  22
WARROAD        CLOUDY    30  27  86 SW5       29.59S
ROSEAU         LGT SNOW  30  27  86 SW7       29.59S WCI  23
HALLOCK        CLOUDY    30  30 100 W10       29.61S WCI  21
THF RVR FALLS  FLURRIES  29  27  92 W14       29.63S WCI  18
BAUDETTE       CLOUDY    31  29  92 SW10      29.59R WCI  22
WASKISH        CLOUDY    30  28  93 W9        29.61S WCI  22
CROOKSTON      CLOUDY    30  28  93 W13       29.66S WCI  20
GREENBUSH NDAW   N/A     28  28 100 W8          N/A  WCI  20
$$
  *****  WEATHER ACROSS CENTRAL AND WEST MINNESOTA  *****

CITY           SKY/WX    TMP DP  RH WIND       PRES   REMARKS
FOSSTON        CLOUDY    28  27  93 SW9       29.64F WCI  20
BEMIDJI        CLOUDY    29  28  96 W13       29.62S WCI  19
PARK RAPIDS    CLOUDY    32  26  78 W13       29.64S WCI  22
ELBOW LAKE     MOCLDY    32  31  98 CALM      29.71F
WADENA         MOCLDY    30  28  93 SW12      29.67S WCI  21
DETROIT LAKES  CLOUDY    32  28  86 W7        29.68S
MOORHEAD       MOCLDY    30  27  86 SW5       29.70S
FERGUS FALLS   CLOUDY    32  32 100 SW6       29.74S
MORRIS MN      CLEAR     32  30  93 SW8       29.72S WCI  25
STAPLES        CLOUDY    30  28  93 SW8       29.67F WCI  23
$$
  *****  WEATHER ELSEWHERE ACROSS MINNESOTA  *****

CITY           SKY/WX    TMP DP  RH WIND       PRES   REMARKS
DULUTH         FRZ DRZL  32  31  96 SW8       29.63F FOG     WCI  25
INTRNTL FALLS  LGT SNOW  30  28  92 SE6       29.60S VSB 1   WCI  24
ELY            LGT SNOW  28  28 100 CALM      29.62F
CLOQUET        LGT SNOW  32  30  93 S5        29.64F
WHEATON        NOT AVBL
BRAINERD       CLOUDY    32  28  85 W9        29.68S WCI  24
HIBBING        LGT SNOW  30  29  96 CALM      29.61F FOG
ALEXANDRIA     CLOUDY    33  31  92 SW9       29.71S
SAINT CLOUD    CLOUDY    34  31  88 W8        29.72S
MINNEAPOLIS    CLOUDY    36  30  79 W13G25    29.76R
$$

  *****  WEATHER ACROSS SOUTH DAKOTA  *****

CITY           SKY/WX    TMP DP  RH WIND       PRES   REMARKS
SIOUX FALLS    PTCLDY    33  29  85 W3        29.79F
BROOKINGS      CLEAR     29  27  92 SW7       29.75F WCI  22
WATERTOWN      CLEAR     28  26  92 SW9       29.73F WCI  19
HURON          CLEAR     32  27  81 S6        29.75F
SISSETON         N/A     33  27  78 W10       29.70F WCI  25
ABERDEEN       CLEAR     26  22  84 S7        29.73F WCI  18
MITCHELL       CLEAR     35  28  75 S8        29.77F
PIERRE         CLOUDY    29  24  82 E3        29.69F
MOBRIDGE       CLOUDY    30  24  78 SE8       29.65F WCI  22
RAPID CITY     CLOUDY    35  18  49 S8        29.61F
$$

  *****  SOME WEATHER IN NEARBY STATES *****

CITY           SKY/WX    TMP DP  RH WIND       PRES   REMARKS
GLASGOW MT     CLOUDY    33  31  92 W7        29.48F
GREAT FALLS MT CLOUDY    27  22  81 NW20G25   29.60R WCI  13
CHEYENNE WY    CLOUDY    40  14  34 W23G35    29.73R
SCOTTSBLUFF NE CLOUDY    39  19  44 W7        29.69F
OMAHA NE       CLEAR     32  27  81 SE7       29.91F
DES MOINES IA  CLEAR     34  31  88 S7        29.92R
DAVENPORT IA   CLOUDY    33  31  92 W12       29.92S WCI  24
CHICAGO IL     MOCLDY    31  30  96 W3        29.87F FOG
EAU CLAIRE WI  LGT SNOW  33  32  96 S7        29.74F FOG
LA CROSSE WI   PTCLDY    36  32  85 S10       29.81F
$$

  *****  SOME NATIONAL WEATHER *****

CITY           SKY/WX    TMP DP  RH WIND       PRES   REMARKS
LA GUARDIA NY  CLOUDY    43  24  47 E9        30.17F
RALEIGH NC     LGT RAIN  42  40  92 E5        30.12F
ATLANTA GA     LGT RAIN  45  45 100 E9        30.06R FOG
NEW ORLEANS LA RAIN      61  61 100 CALM      29.99S
OKLAHOMA CITY  CLOUDY    44  38  79 N3        30.02F
ALBUQUERQUE NM CLOUDY    39  14  36 E6        30.06F
SALT LAKE CITY CLOUDY    41  21  44 SE12      29.85F
LOS ANGELES CA MOCLDY    60  53  77 W5        29.98F
BOISE ID       LGT RAIN  39  35  86 NW16      29.84R
SEATTLE WA     MOCLDY    38  33  82 SE12      30.11R
$$

*** WEATHER ACROSS MANITOBA...SASKATCHEWAN AND ONTARIO ***
                ***ONTARIO***

CITY           SKY/WX    TMP DP  RH WIND       PRES   REMARKS
GERALDTON      LGT SNOW  25  25 100 E7        29.77F DRFTSNOWWCI  17
THUNDER BAY    LGT SNOW  32  32 100 SE5       29.70F
SIOUX LOOKOUT  SNOWSHWR  28  27  93 SE7       29.63F WCI  21
TORONTO        FLURRIES  37  30  75 E14       29.99F
BIG TROUT LK   CLOUDY    27  25  93 S9        29.74F WCI  17
PICKLE LAKE    FLURRIES  27  25  93 SE9       29.69F WCI  17
DRYDEN         FLURRIES  30  30 100 SE7       29.60F WCI  23
KENORA         LGT SNOW  30  28  93 SE9       29.56F WCI  22
$$
                *** MANITOBA***

CITY           SKY/WX    TMP DP  RH WIND       PRES   REMARKS
BRANDON        CLOUDY    25  23  93 NW13      29.63S WCI  13
DAUPHIN        CLOUDY    27  25  93 W14       29.62S WCI  15
ISLAND LAKE    NOT AVBL
PILOT MOUND      N/A     25  25 100 NW10        N/A  WCI  15
THE PAS        CLOUDY    27  21  80 SW2       29.59S
THOMPSON       FLURRIES  25  25 100 VRB2      29.62F
WINNIPEG       CLOUDY    28  28 100 NW8       29.58R FOG     WCI  20
LYNN LAKE      FLURRIES  23  23 100 E3        29.56F
CHURCHILL      FLURRIES  18  18 100 SE5       29.79F WCI  11
GILLAM         CLOUDY    19  18  93 SE3       29.72F
$$
                ***SASKATCHEWAN***

CITY           SKY/WX    TMP DP  RH WIND       PRES   REMARKS
ESTEVAN        CLOUDY    14  12  92 E9        29.57F WCI   2
KINDERSLEY     PTCLDY    16  10  79 NW9       29.60R WCI   4
LLOYDMINSTER   LGT SNOW  19  14  79 NW23G29   29.61R DRFTSNOWWCI   2
PRINCE ALBERT  PTCLDY    18  12  79 W3        29.55S
REGINA         CLOUDY    19  18  93 E8        29.56S WCI   9
YORKTON        FOG       19  19 100 S6        29.59F VSB 5/8 WCI  11
N. BATTLEFORD  CLOUDY    25  18  74 W13       29.60S WCI  13
LA RONGE       CLOUDY    25  19  80 W2        29.52S
SASKATOON      PTCLDY    16  10  79 W7        29.60S WCI   6
SWIFT CURRENT  MOCLDY    18  18 100 N3        29.53R
$$
NOTE: THESE ARE AUTOMATED STATIONS WITH LIMITED QUALITY CONTROL
      "FAIR" INDICATES FEW OR NO CLOUDS BELOW 12,000 FEET WITH NO
      SIGNIFICANT WEATHER AND/OR OBSTRUCTIONS TO VISIBILITY.
      SKY/WX - SKY CONDITION AND SIGNIFICANT WEATHER.
      TMP - AIR TEMPERATURE.    DP   - DEWPOINT TEMPERATURE.
      RH  - RELATIVE HUMIDITY.  PRES - PRESSURE.
      HX  - HEAT INDEX.         WCI  - WIND CHILL INDEX.
$




USA.gov is the U.S. government's official web portal to all federal, state and local government web resources and services.